Powrót do katalogu

SL-8 DEB

AktywnyLEO
NORAD 27746·DEBRIS·🇷🇺 Russia

Wystrzelony Feb 12, 1991 z Plesetsk Cosmodrome

Loading…

Następne Przeloty (najbliższe 24 godziny)

TLE

Starzejące sięSource: Space-Track

Epoka: Sep 8, 2026, 05:04 UTC

1 27746U 91009DB  26251.21131653  .00000054  00000-0  68011-3 0  9991
2 27746  74.1074 332.2450 0176446 305.3836  80.4400 12.14606258583845

Śledź SL-8 DEB w czasie rzeczywistym z AllMySat

Download on the App Store